Regional Weather Roundup
Issued by NWS New Orleans/Baton Rouge, LA

Home | Current Version | Previous Version | Text Only | Print | Product List | Glossary Off
Versions: 1 2 3 4 5 6 7 8 9 10 11 12 13 14 15 16 17 18 19 20 21 22 23 24 25 26 27 28 29 30 31 32 33 34 35 36 37 38 39 40 41 42 43 44 45 46 47 48 49 50

822
ASUS44 KLIX 310910
RWRLIX
NEW ORLEANS REGIONAL WEATHER ROUNDUP
NATIONAL WEATHER SERVICE NEW ORLEANS LA
300 AM CST SAT JAN 31 2015

NOTE: "FAIR" INDICATES FEW OR NO CLOUDS BELOW 12,000 FEET WITH NO
      SIGNIFICANT WEATHER AND/OR OBSTRUCTIONS TO VISIBILITY.
      SKY/WX - SKY CONDITION AND SIGNIFICANT WEATHER.
      TMP - AIR TEMPERATURE.     DP    - DEWPOINT TEMPERATURE.
      RH  - RELATIVE HUMIDITY.   PRES  - PRESSURE.
      HI  - HEAT INDEX.          WCI   - WIND CHILL INDEX.

*  THESE STATIONS ARE NOT NWS OR FAA STATIONS AND ARE NOT UNDER
   NWS QUALITY CONTROL.

LAZ038-040-048-061>063-065>067-069-311000-
SOUTHEAST LOUISIANA

CITY           SKY/WX    TMP DP  RH WIND       PRES   REMARKS
N.O. AUDUBON   NOT AVBL
N.O. INTL ARPT PTCLDY    49  34  56 E9        30.29F
N.O. LAKEFRONT CLEAR     50  36  58 E16       30.30F
N.O. DOWNTOWN* NOT AVBL
SLIDELL        CLEAR     41  31  67 NE5       30.30F
BATON ROUGE    CLEAR     38  31  76 NE6       30.30F WCI  33
BOOTHVILLE     MOCLDY    52  44  74 NE9       30.28F
BELLE CHASSE   CLEAR     40  35  83 NE3       30.28F
BOGALUSA*        N/A     36  32  84 NE3       30.34S
GALLIANO*      MOSUNNY   53  42  67 NE5       30.28F
NEW ROADS*       N/A     40  32  73 NE6       30.30F
GONZALES*        N/A     43  34  70 NE3       30.29F
HAMMOND*       CLEAR     37  32  81 CALM      30.32F
HOUMA*         PTCLDY    42  37  80 NE5       30.28F
PORT FOURCHON* SUNNY     54  45  71 NE10      30.29F

$$

MSZ070-080>082-311000-
SOUTHERN MISSISSIPPI

CITY           SKY/WX    TMP DP  RH WIND       PRES   REMARKS
MCCOMB         CLEAR     40  29  64 NE3       30.30F
GULFPORT       CLEAR     40  31  70 NE7       30.32F
BILOXI         PTCLDY    39  32  76 NE6       30.32F WCI  35
PASCAGOULA     CLEAR     33  31  92 CALM      30.32F

$$

COASTAL OBSERVATIONS
LAKE AND NEARSHORE STATIONS

STATION/POSITION TIME  TEMP    WIND        PRES    WAVE
                       AIR SEA DIR/SP/G            HT/PER
                 (UTC) (F)     (DEG/KT/KT) (MB)    (FT/S)
PASCAGOULA       0900   42      20/  6/  8 1026.2
WAVELAND YACHT   0900   45      60/ 11/ 13 1025.5
GRAND ISLE       0900   55 63   60/ 12/ 16 1025.4
SOUTHWEST PASS   0900   50 46   40/ 12/ 13 1024.8
NEW CANAL        0900   50 55   70/ 15/ 17 1025.8
SHELL BEACH      0900   51 56   60/ 15/ 18 1025.4

OFFSHORE STATIONS

STATION/POSITION TIME  TEMP    WIND        PRES    WAVE
                       AIR SEA DIR/SP/G            HT/PER
                 (UTC) (F)     (DEG/KT/KT) (MB)    (FT/S)
64 S DAUPHIN ISL 0816   59 68   50/ 17/ 19 1025.2    4/ 6

$$




USA.gov is the U.S. government's official web portal to all federal, state and local government web resources and services.